GW4074 Weather Reports


Display with metric or nautical units.
time (UTC)temp
F
wind
direction
speed
MPH
gust
MPH
rain 1hr
in
rain 24hr
in
rain mn
in
humidity
%
barometer
mb
20260831200220 70 272 0.0 4.0 0.00 0.00 0.00 62 1012.4
20260831195716 69 319 0.0 4.0 0.00 0.00 0.00 62 1012.4
20260831195211 69 329 2.0 4.0 0.00 0.00 0.00 61 1012.5
20260831194706 69 185 2.0 3.0 0.00 0.00 0.00 62 1012.6
20260831194202 69 283 1.0 4.0 0.00 0.00 0.00 64 1012.5
20260831193701 68 8 0.0 5.0 0.00 0.00 0.00 63 1012.4
20260831193156 67 319 5.0 5.0 0.00 0.00 0.00 65 1012.6
20260831192651 67 9 2.0 4.0 0.00 0.00 0.00 66 1012.8
20260831192147 67 245 2.0 4.0 0.00 0.00 0.00 65 1012.8
20260831191642 67 67 2.0 4.0 0.00 0.00 0.00 67 1012.9
20260831191138 67 78 2.0 4.0 0.00 0.00 0.00 67 1013.0
20260831190633 67 343 4.0 5.0 0.00 0.00 0.00 64 1013.0
20260831190132 68 278 2.0 4.0 0.00 0.00 0.00 64 1013.0
20260831185628 68 351 2.0 5.0 0.00 0.00 0.00 63 1012.9
20260831185124 68 42 1.0 4.0 0.00 0.00 0.00 63 1013.3
20260831184623 68 81 2.0 5.0 0.00 0.00 0.00 64 1013.1
20260831184119 68 34 3.0 3.0 0.00 0.00 0.00 64 1013.0
20260831183618 68 29 0.0 3.0 0.00 0.00 0.00 64 1013.1
20260831183118 68 42 0.0 5.0 0.00 0.00 0.00 64 1013.1
20260831182617 67 250 3.0 4.0 0.00 0.00 0.00 65 1013.5
20260831182114 67 358 5.0 5.0 0.00 0.00 0.00 67 1013.4
20260831181613 66 6 4.0 5.0 0.00 0.00 0.00 67 1013.5
20260831181108 66 99 1.0 4.0 0.00 0.00 0.00 65 1013.4
20260831180603 66 198 2.0 4.0 0.00 0.00 0.00 68 1013.5
20260831180058 66 350 2.0 3.0 0.00 0.00 0.00 68 1013.6
20260831175558 65 353 2.0 4.0 0.00 0.00 0.00 69 1013.5
20260831175055 64 199 2.0 3.0 0.00 0.00 0.00 72 1013.5
20260831174550 64 3 3.0 4.0 0.00 0.00 0.00 72 1013.7
20260831174050 64 356 2.0 4.0 0.00 0.00 0.00 70 1013.7
20260831173548 64 162 3.0 3.0 0.00 0.00 0.00 71 1013.8
20260831173045 64 12 0.0 4.0 0.00 0.00 0.00 72 1013.7
20260831172539 64 349 1.0 3.0 0.00 0.00 0.00 73 1013.6
20260831172034 64 220 5.0 5.0 0.00 0.00 0.00 72 1013.8
20260831171530 63 346 0.0 3.0 0.00 0.00 0.00 74 1013.7
20260831171027 63 162 0.0 3.0 0.00 0.00 0.00 74 1013.7
20260831170522 63 145 3.0 4.0 0.00 0.00 0.00 75 1013.8
20260831170020 62 55 2.0 4.0 0.00 0.00 0.00 76 1013.8
20260831165520 62 11 3.0 3.0 0.00 0.00 0.00 76 1013.8
20260831165017 62 9 4.0 5.0 0.00 0.00 0.00 75 1013.8
20260831164513 62 60 2.0 3.0 0.00 0.00 0.00 77 1013.9
20260831164008 61 149 0.0 4.0 0.00 0.00 0.00 77 1013.9
20260831163503 60 68 2.0 5.0 0.00 0.00 0.00 78 1013.8
20260831163002 60 129 6.0 6.0 0.00 0.00 0.00 78 1014.0
20260831162457 60 69 3.0 3.0 0.00 0.00 0.00 81 1013.8
20260831161955 59 113 3.0 4.0 0.00 0.00 0.00 89 1013.9
20260831161452 59 89 3.0 5.0 0.00 0.00 0.00 86 1013.9
20260831160948 59 79 2.0 3.0 0.00 0.00 0.00 84 1014.1
20260831160447 58 147 2.0 5.0 0.00 0.00 0.00 88 1014.0
20260831155942 57 168 3.0 4.0 0.00 0.00 0.00 91 1014.2
20260831155436 57 204 0.0 4.0 0.00 0.00 0.00 93 1014.3
20260831154931 57 120 2.0 4.0 0.00 0.00 0.00 93 1014.3
20260831154428 57 153 3.0 4.0 0.00 0.00 0.00 94 1014.2
20260831153926 56 157 4.0 4.0 0.00 0.00 0.00 93 1014.4
20260831153423 57 114 2.0 3.0 0.00 0.00 0.00 93 1014.3
20260831152919 57 121 3.0 4.0 0.00 0.00 0.00 92 1014.2
20260831152414 56 158 2.0 3.0 0.00 0.00 0.00 93 1014.3
20260831151909 56 126 2.0 2.0 0.00 0.00 0.00 94 1014.3
20260831151408 56 130 2.0 2.0 0.00 0.00 0.00 94 1014.2
20260831150903 56 113 2.0 2.0 0.00 0.00 0.00 93 1014.4
20260831150359 57 114 2.0 3.0 0.00 0.00 0.00 91 1014.2
20260831145858 56 115 2.0 2.0 0.00 0.00 0.00 89 1014.1
20260831145355 56 86 1.0 2.0 0.00 0.00 0.00 89 1014.2
20260831144850 56 117 2.0 3.0 0.00 0.00 0.00 90 1014.3
20260831144346 56 105 2.0 3.0 0.00 0.00 0.00 91 1014.2
20260831143846 55 78 0.0 3.0 0.00 0.00 0.00 91 1014.1
20260831143341 55 92 1.0 2.0 0.00 0.00 0.00 93 1014.3
20260831142837 55 94 0.0 1.0 0.00 0.00 0.00 93 1014.2
20260831142332 55 89 0.0 3.0 0.00 0.00 0.00 94 1014.2
20260831141826 54 68 2.0 3.0 0.00 0.00 0.00 94 1014.3
20260831141321 54 156 0.0 3.0 0.00 0.00 0.00 94 1014.2
20260831140816 54 110 2.0 3.0 0.00 0.00 0.00 94 1014.2
20260831140311 54 40 2.0 2.0 0.00 0.00 0.00 94 1014.2
20260831135808 54 352 1.0 3.0 0.00 0.00 0.00 94 1014.2
20260831135306 54 96 1.0 2.0 0.00 0.00 0.00 94 1014.0
20260831134759 54 49 1.0 4.0 0.00 0.00 0.00 94 1014.1
20260831134255 54 40 1.0 4.0 0.00 0.00 0.00 95 1013.9
20260831133754 54 66 0.0 3.0 0.00 0.00 0.00 95 1014.0
20260831133248 54 103 2.0 2.0 0.00 0.00 0.00 95 1013.9
20260831132743 54 97 1.0 2.0 0.00 0.00 0.00 95 1014.0
20260831132238 54 92 1.0 3.0 0.00 0.00 0.00 95 1014.1
20260831131732 54 138 2.0 3.0 0.00 0.00 0.00 95 1014.1
20260831131229 54 149 2.0 3.0 0.00 0.00 0.00 95 1014.2
20260831130724 54 111 2.0 3.0 0.00 0.00 0.00 94 1014.3
20260831130219 54 142 2.0 4.0 0.00 0.00 0.00 95 1014.4
20260831125717 54 60 1.0 5.0 0.00 0.00 0.00 95 1014.4
20260831125214 54 110 3.0 4.0 0.00 0.00 0.00 95 1014.4
20260831124708 54 101 2.0 3.0 0.00 0.00 0.00 95 1014.7
20260831124205 54 121 2.0 2.0 0.00 0.00 0.00 94 1014.8
20260831123704 54 97 0.0 2.0 0.00 0.00 0.00 94 1014.6
20260831123203 54 104 3.0 4.0 0.00 0.00 0.00 94 1014.7
20260831122658 54 95 2.0 3.0 0.00 0.00 0.00 94 1014.7
20260831122154 54 92 2.0 4.0 0.00 0.00 0.00 94 1014.8
20260831121653 54 115 3.0 4.0 0.00 0.00 0.00 94 1014.8
20260831121150 55 146 4.0 4.0 0.00 0.00 0.00 93 1014.9
20260831120645 55 116 3.0 5.0 0.00 0.00 0.00 93 1015.0
20260831120145 55 115 2.0 3.0 0.00 0.00 0.00 93 1014.8
20260831115641 55 102 2.0 2.0 0.00 0.00 0.00 93 1014.9
20260831115136 55 41 0.0 3.0 0.00 0.00 0.00 93 1015.0
20260831114635 55 44 2.0 2.0 0.00 0.00 0.00 93 1015.2
20260831114130 55 89 1.0 2.0 0.00 0.00 0.00 93 1015.3
20260831113630 55 43 2.0 3.0 0.00 0.00 0.00 94 1015.1
20260831113125 55 87 3.0 3.0 0.00 0.00 0.00 93 1015.4
20260831112624 55 132 4.0 4.0 0.00 0.00 0.00 93 1015.3
20260831112119 55 145 3.0 3.0 0.00 0.00 0.00 93 1015.1
20260831111615 55 158 2.0 4.0 0.00 0.00 0.00 93 1015.3
20260831111111 55 69 2.0 4.0 0.00 0.00 0.00 93 1015.2
20260831110606 55 188 3.0 4.0 0.00 0.00 0.00 93 1015.4
20260831105600 55 16 2.0 6.0 0.00 0.00 0.00 93 1015.4
20260831105055 55 100 2.0 4.0 0.00 0.00 0.00 93 1015.4
20260831104551 55 91 2.0 4.0 0.00 0.00 0.00 93 1015.4
20260831104048 55 101 1.0 4.0 0.00 0.00 0.00 93 1015.3
20260831103543 55 11 2.0 2.0 0.00 0.00 0.00 93 1015.5
20260831103038 55 61 1.0 2.0 0.00 0.00 0.00 93 1015.5
20260831102532 55 109 2.0 3.0 0.00 0.00 0.00 93 1015.6
20260831102027 55 77 0.0 3.0 0.00 0.00 0.00 93 1015.6
20260831101522 55 103 2.0 3.0 0.00 0.00 0.00 93 1015.6
20260831101019 55 109 2.0 2.0 0.00 0.00 0.00 93 1015.7
20260831100514 55 93 2.0 4.0 0.00 0.00 0.00 92 1015.7
20260831100010 55 89 3.0 4.0 0.00 0.00 0.00 91 1015.8
20260831095508 55 202 0.0 2.0 0.00 0.00 0.00 92 1015.8
20260831095003 55 94 2.0 2.0 0.00 0.00 0.00 92 1015.9
20260831094459 56 335 0.0 2.0 0.00 0.00 0.00 92 1016.0
20260831093955 56 53 2.0 4.0 0.00 0.00 0.00 92 1016.1
20260831093450 55 101 3.0 4.0 0.00 0.00 0.00 92 1016.0
20260831092946 56 54 2.0 2.0 0.00 0.00 0.00 92 1016.3
20260831092442 56 0 2.0 2.0 0.00 0.00 0.00 92 1016.1
20260831091937 56 65 1.0 2.0 0.00 0.00 0.00 92 1016.3
20260831091432 56 172 2.0 3.0 0.00 0.00 0.00 91 1016.5
20260831090922 56 153 2.0 4.0 0.00 0.00 0.00 92 1016.4
20260831090418 56 224 0.0 2.0 0.00 0.00 0.00 92 1016.4
20260831085914 55 107 3.0 4.0 0.00 0.00 0.00 93 1016.4
20260831085409 55 113 2.0 3.0 0.00 0.00 0.00 92 1016.3
20260831084908 56 87 0.0 3.0 0.00 0.00 0.00 91 1016.5
20260831084405 55 50 0.0 0.0 0.00 0.00 0.00 93 1016.3
20260831083901 55 7 3.0 4.0 0.00 0.00 0.00 93 1016.3
20260831083356 55 149 3.0 3.0 0.00 0.00 0.00 93 1016.3
20260831082855 55 99 1.0 3.0 0.00 0.00 0.00 94 1016.5
20260831082354 55 195 1.0 2.0 0.00 0.00 0.00 94 1016.7
20260831081850 55 116 0.0 0.0 0.00 0.00 0.00 94 1016.7
20260831081345 55 100 2.0 4.0 0.00 0.00 0.00 94 1016.7
20260831080842 55 115 3.0 4.0 0.00 0.00 0.00 94 1016.6
20260831080341 55 134 2.0 4.0 0.00 0.00 0.00 94 1016.7
20260831075837 55 110 2.0 3.0 0.00 0.00 0.00 93 1016.6
20260831075332 55 324 0.0 3.0 0.00 0.00 0.00 93 1016.6
20260831074827 56 327 3.0 4.0 0.00 0.00 0.00 93 1016.9
20260831074326 55 330 3.0 4.0 0.00 0.00 0.00 94 1016.7
20260831073822 55 31 3.0 4.0 0.00 0.00 0.00 93 1017.0
20260831073321 55 13 4.0 5.0 0.00 0.00 0.00 94 1016.9
20260831072816 55 28 2.0 3.0 0.00 0.00 0.00 92 1017.0
20260831072312 55 82 2.0 3.0 0.00 0.00 0.00 91 1017.2
20260831071808 54 106 0.0 1.0 0.00 0.00 0.00 91 1017.1
20260831071302 54 77 0.0 2.0 0.00 0.00 0.00 91 1017.1
20260831070802 53 96 2.0 2.0 0.00 0.00 0.00 92 1017.1
20260831070301 53 45 2.0 3.0 0.00 0.00 0.00 92 1017.1
20260831065800 54 20 3.0 3.0 0.00 0.00 0.00 91 1017.3
20260831065258 54 26 2.0 3.0 0.00 0.00 0.00 91 1017.4
20260831064754 54 37 2.0 2.0 0.00 0.00 0.00 90 1017.5
20260831064249 54 86 0.0 2.0 0.00 0.00 0.00 90 1017.5
20260831063745 54 36 2.0 2.0 0.00 0.00 0.00 90 1017.7
20260831063240 54 53 2.0 3.0 0.00 0.00 0.00 91 1017.5
20260831062739 53 35 2.0 3.0 0.00 0.00 0.00 92 1017.7
20260831062234 53 32 2.0 3.0 0.00 0.00 0.00 92 1017.4
20260831061732 54 30 2.0 3.0 0.00 0.00 0.00 91 1017.7
20260831061228 54 16 2.0 2.0 0.00 0.00 0.00 91 1017.7
20260831060724 54 45 2.0 2.0 0.00 0.00 0.00 91 1017.7
20260831060219 55 21 0.0 2.0 0.00 0.00 0.00 91 1017.5
20260831055718 55 45 2.0 2.0 0.00 0.00 0.00 91 1017.9
20260831055213 55 53 1.0 1.0 0.00 0.00 0.00 92 1017.8
20260831054713 54 46 2.0 2.0 0.00 0.00 0.00 92 1018.0
20260831054208 55 40 1.0 2.0 0.00 0.00 0.00 91 1018.0
20260831053701 55 34 1.0 2.0 0.00 0.00 0.00 90 1017.8
20260831053200 55 59 2.0 2.0 0.00 0.00 0.00 91 1018.0
20260831052655 55 43 2.0 2.0 0.00 0.00 0.00 90 1018.0
20260831052154 55 40 2.0 2.0 0.00 0.00 0.00 90 1018.1
20260831051652 55 51 2.0 2.0 0.00 0.00 0.00 90 1018.1
20260831051151 56 49 0.0 1.0 0.00 0.00 0.00 90 1018.0
20260831050646 56 39 1.0 2.0 0.00 0.00 0.00 89 1018.2
20260831050145 56 113 1.0 2.0 0.00 0.00 0.00 89 1018.4
20260831045644 57 115 2.0 3.0 0.00 0.00 0.00 88 1018.4
20260831045139 57 120 2.0 3.0 0.00 0.00 0.00 88 1018.5
20260831044634 57 104 2.0 2.0 0.00 0.00 0.00 88 1018.4
20260831044129 57 97 2.0 2.0 0.00 0.00 0.00 88 1018.2
20260831043625 57 89 0.0 2.0 0.00 0.00 0.00 88 1018.2
20260831043120 57 70 0.0 1.0 0.00 0.00 0.00 88 1018.6
20260831042619 57 103 0.0 0.0 0.00 0.00 0.00 88 1018.7
20260831042114 57 80 0.0 0.0 0.00 0.00 0.00 87 1018.8
20260831041609 57 121 1.0 1.0 0.00 0.00 0.00 87 1018.5
20260831041108 58 124 2.0 2.0 0.00 0.00 0.00 86 1018.4
20260831040604 58 146 2.0 2.0 0.00 0.00 0.00 85 1018.8
20260831040057 58 118 2.0 2.0 0.00 0.00 0.00 85 1018.4
20260831035549 58 105 2.0 2.0 0.00 0.00 0.00 85 1018.6
20260831035044 58 101 0.0 2.0 0.00 0.00 0.00 85 1018.5
20260831034538 58 110 2.0 2.0 0.00 0.00 0.00 84 1018.6
20260831034034 58 109 1.0 2.0 0.00 0.00 0.00 84 1018.5
20260831033529 58 121 2.0 2.0 0.00 0.00 0.00 84 1018.7
20260831033024 59 102 0.0 2.0 0.00 0.00 0.00 84 1018.5
20260831032523 59 112 2.0 2.0 0.00 0.00 0.00 84 1018.5
20260831032019 59 107 2.0 2.0 0.00 0.00 0.00 83 1018.6
20260831031514 59 85 0.0 1.0 0.00 0.00 0.00 83 1018.4
20260831031013 59 63 2.0 2.0 0.00 0.00 0.00 82 1018.5
20260831030512 59 105 1.0 2.0 0.00 0.00 0.00 81 1018.5
20260831030012 59 124 2.0 2.0 0.00 0.00 0.00 81 1018.5
20260831025509 59 103 1.0 2.0 0.00 0.00 0.00 81 1018.6
20260831025005 59 128 2.0 2.0 0.00 0.00 0.00 82 1018.5
20260831024501 59 155 2.0 2.0 0.00 0.00 0.00 83 1018.8
20260831023959 60 125 1.0 1.0 0.00 0.00 0.00 82 1018.6
20260831023457 60 151 2.0 2.0 0.00 0.00 0.00 83 1018.7
20260831022948 60 132 1.0 2.0 0.00 0.00 0.00 82 1018.7
20260831022447 60 130 2.0 2.0 0.00 0.00 0.00 82 1018.7
20260831021942 60 114 2.0 3.0 0.00 0.00 0.00 82 1018.8
20260831021441 61 145 2.0 3.0 0.00 0.00 0.00 80 1018.8
20260831020937 61 145 1.0 2.0 0.00 0.00 0.00 81 1019.0
20260831020436 61 55 0.0 1.0 0.00 0.00 0.00 79 1019.0
20260831015931 61 48 0.0 2.0 0.00 0.00 0.00 78 1018.9
20260831015427 62 119 0.0 2.0 0.00 0.00 0.00 79 1018.9
20260831014922 62 113 1.0 2.0 0.00 0.00 0.00 78 1019.0
20260831014416 62 76 0.0 1.0 0.00 0.00 0.00 75 1019.0
20260831013912 62 115 1.0 2.0 0.00 0.00 0.00 75 1019.1
20260831013408 62 89 0.0 2.0 0.00 0.00 0.00 74 1019.1
20260831012902 62 136 1.0 2.0 0.00 0.00 0.00 75 1018.9
20260831012357 62 132 2.0 3.0 0.00 0.00 0.00 78 1019.0
20260831011857 62 118 1.0 2.0 0.00 0.00 0.00 76 1018.9
20260831011346 62 143 2.0 2.0 0.00 0.00 0.00 77 1019.0
20260831010842 62 140 0.0 2.0 0.00 0.00 0.00 75 1019.2
20260831010341 62 50 0.0 3.0 0.00 0.00 0.00 75 1019.3
20260831005837 62 105 1.0 2.0 0.00 0.00 0.00 75 1019.4
20260831005333 62 93 1.0 2.0 0.00 0.00 0.00 74 1019.4
20260831004828 62 141 3.0 3.0 0.00 0.00 0.00 75 1019.7
20260831004324 62 136 1.0 3.0 0.00 0.00 0.00 75 1019.3
20260831003820 62 170 2.0 3.0 0.00 0.00 0.00 74 1019.5
20260831003316 63 142 4.0 4.0 0.00 0.00 0.00 73 1019.5
20260831002815 63 156 2.0 2.0 0.00 0.00 0.00 72 1019.4
20260831002314 63 142 3.0 4.0 0.00 0.00 0.00 73 1019.6
20260831001810 62 106 1.0 2.0 0.00 0.00 0.00 72 1019.7
20260831001305 63 65 1.0 3.0 0.00 0.00 0.00 72 1019.5
20260831000802 63 73 2.0 4.0 0.00 0.00 0.00 71 1019.7
20260831000303 64 111 1.0 2.0 0.00 0.00 0.00 70 1019.6
20260830235800 64 355 2.0 3.0 0.00 0.00 0.00 70 1019.4
20260830235255 65 155 2.0 2.0 0.00 0.00 0.00 69 1019.5
20260830234750 65 4 0.0 2.0 0.00 0.00 0.00 68 1019.6
20260830234246 65 77 0.0 3.0 0.00 0.00 0.00 68 1019.3
20260830233742 65 87 0.0 6.0 0.00 0.00 0.00 67 1019.4
20260830233238 66 354 0.0 1.0 0.00 0.00 0.00 66 1019.5
20260830232733 66 99 0.0 2.0 0.00 0.00 0.00 67 1019.4
20260830232228 67 120 2.0 2.0 0.00 0.00 0.00 65 1019.5
20260830231725 66 93 1.0 4.0 0.00 0.00 0.00 66 1019.7
20260830231224 67 127 0.0 3.0 0.00 0.00 0.00 64 1019.4
20260830230719 67 12 2.0 3.0 0.00 0.00 0.00 64 1019.7
20260830230214 66 14 2.0 2.0 0.00 0.00 0.00 66 1019.6
20260830225709 66 44 0.0 3.0 0.00 0.00 0.00 67 1019.7
20260830225209 66 24 2.0 2.0 0.00 0.00 0.00 66 1019.4
20260830224708 66 47 1.0 1.0 0.00 0.00 0.00 67 1019.5
20260830224204 66 97 2.0 3.0 0.00 0.00 0.00 65 1019.6
20260830223701 67 296 0.0 2.0 0.00 0.00 0.00 65 1019.7
20260830223156 66 179 3.0 5.0 0.00 0.00 0.00 65 1019.5
20260830222650 66 290 1.0 2.0 0.00 0.00 0.00 64 1019.6
20260830222146 67 178 4.0 5.0 0.00 0.00 0.00 63 1019.8
20260830221642 66 132 2.0 3.0 0.00 0.00 0.00 66 1019.7
20260830221138 67 140 1.0 3.0 0.00 0.00 0.00 65 1019.9
20260830220633 67 153 1.0 3.0 0.00 0.00 0.00 65 1019.9
20260830220132 67 148 2.0 3.0 0.00 0.00 0.00 65 1019.8
20260830215631 66 187 3.0 3.0 0.00 0.00 0.00 64 1020.0
20260830215126 67 159 3.0 4.0 0.00 0.00 0.00 64 1020.0
20260830214621 66 150 2.0 7.0 0.00 0.00 0.00 64 1019.9
20260830214116 66 169 1.0 6.0 0.00 0.00 0.00 64 1020.0
20260830213615 66 177 4.0 5.0 0.00 0.00 0.00 65 1020.2
20260830213111 65 145 2.0 5.0 0.00 0.00 0.00 66 1020.1
20260830212606 66 179 4.0 5.0 0.00 0.00 0.00 65 1020.1
20260830212101 66 157 2.0 4.0 0.00 0.00 0.00 67 1019.9
20260830211555 66 195 2.0 6.0 0.00 0.00 0.00 68 1019.8
20260830211049 66 172 2.0 6.0 0.00 0.00 0.00 69 1020.1
20260830210545 66 172 3.0 4.0 0.00 0.00 0.00 66 1019.9
20260830210044 66 132 3.0 4.0 0.00 0.00 0.00 66 1019.9
20260830205542 67 185 1.0 3.0 0.00 0.00 0.00 66 1019.8
20260830205037 66 180 3.0 6.0 0.00 0.00 0.00 66 1020.1
20260830204536 66 128 4.0 6.0 0.00 0.00 0.00 70 1020.1
20260830204036 65 139 3.0 5.0 0.00 0.00 0.00 68 1020.2
20260830203533 65 179 2.0 6.0 0.00 0.00 0.00 69 1019.9
20260830203032 65 161 1.0 5.0 0.00 0.00 0.00 69 1020.2
20260830202527 65 174 1.0 5.0 0.00 0.00 0.00 68 1020.2
20260830202023 65 174 4.0 4.0 0.00 0.00 0.00 68 1020.1
20260830201522 66 144 3.0 4.0 0.00 0.00 0.00 65 1020.1
20260830201017 66 143 1.0 4.0 0.00 0.00 0.00 67 1020.0